Regional Weather Roundup
Issued by NWS State College, PA

Home | Current Version | Previous Version | Text Only | Print | Product List | Glossary Off
Versions: 1 2 3 4 5 6 7 8 9 10 11 12 13 14 15 16 17 18 19 20 21 22 23 24 25 26 27 28 29 30 31 32 33 34 35 36 37 38 39 40 41 42 43 44 45 46 47 48 49 50

000
ASUS41 KCTP 021203
RWRCTP

REGIONAL WEATHER ROUNDUP
NATIONAL WEATHER SERVICE STATE COLLEGE PA
700 AM EST MON MAR 02 2015

Note: "fair" indicates few or no clouds below 12,000 feet with no
significant weather and/or obstructions to visibility.

* = STATION THAT DOES NOT REPORT PRECIPITATION /E.G. RAIN...SNOW...ETC/
    THUNDER OR FOG.

PAZ002>004-007>009-013>016-020>023-029>032-021300-
WESTERN PENNSYLVANIA

CITY           SKY/WX    TMP DP  RH WIND       PRES   REMARKS
ERIE           CLOUDY    22  16  78 W14G24    30.28R WCI   9
MEADVILLE      LGT SNOW  19  15  84 W13       30.24R WCI   6
FRANKLIN*      CLOUDY    19  14  79 W10G18    30.26R WCI   8
NEW CASTLE     FLURRIES  20  16  84 W9        30.33R WCI   9
BEAVER COUNTY  LGT SNOW  21  18  86 W8G16     30.32  WCI  12
BUTLER*        CLOUDY    21  16  79 W8G16     30.32R WCI  12
PITTSBURGH INT LGT SNOW  22  18  85 NW18      30.32R FOG     WCI   7
PITTSBURGH     LGT SNOW  23  17  78 NW9G18    30.30R WCI  13
INDIANA*       CLOUDY    23  21  93 NW15G25   30.29R FOG     WCI  10
LATROBE        FLURRIES  27  23  86 W15       30.30R WCI  15
WASHINGTON CO* CLOUDY    25  19  80 NW10G18   30.33R WCI  15
$$

PAZ004>006-010>012-017>019-024>028-033>037-041-042-045-046-049>053-021300-
CENTRAL PENNSYLVANIA

CITY           SKY/WX    TMP DP  RH WIND       PRES   REMARKS
BRADFORD       LGT SNOW  17  12  80 W13G21    30.12R WCI   4
DUBOIS         CLOUDY    19  14  81 W16       30.18R HAZE    WCI   4
CLEARFIELD     LGT SNOW  22  15  75 W16G22    30.19R WCI   8
JOHNSTOWN      CLOUDY    23  19  85 W15G31    30.15R FOG     WCI  10
ALTOONA        CLOUDY    29  21  72 NW14      30.17R
STATE COLLEGE  LGT SNOW  27  19  74 NW29G40   30.14R WCI  11
WILLIAMSPORT   CLOUDY    27  22  81 W12       30.14R
SELINSGROVE    CLOUDY    28  25  88 CALM      30.13R FOG
FT INDIANTOWN  CLOUDY    26  25  93 SW3       30.12R FOG
CAPITAL CITY   CLOUDY    29  26  89 VRB3      30.13R FOG
HARRISBURG     CLOUDY    28  25  88 CALM      30.12R FOG
YORK           CLOUDY    30  28  92 NW6       30.12R FOG
$$

PAZ038>040-043-044-047-048-054-055-060>062-067>071-021300-
EASTERN PENNSYLVANIA

CITY           SKY/WX    TMP DP  RH WIND       PRES   REMARKS
SCRANTON       LGT SNOW  26  23  88 SW3       30.06R
MOUNT POCONO   MIX PCPN  24  21  88 NW13G21   29.97R FOG     WCI  12
ALLENTOWN      CLOUDY    28  24  85 W3        30.09R FOG
QUAKERTOWN*    CLOUDY    32  28  86 CALM      30.08R
READING        CLOUDY    27  24  89 N3        30.10R FOG
LANCASTER      CLOUDY    29  27  92 NW6       30.11R FOG
COATESVILLE    CLOUDY    32  32 100 NW10      30.09R FOG
POTTSTOWN      CLOUDY    29  29 100 W6        30.11R FOG
BLUE BELL      CLOUDY    32  32 100 CALM      30.08R
DOYLESTOWN     CLOUDY    32  30  92 W5        30.06R
WILLOW GROVE   NOT AVBL
NORTH PHILA    CLOUDY    35  28  75 W10       30.10R HAZE
PHILADELPHIA   CLOUDY    32  30  92 W9        30.11R FOG
$$


USA.gov is the U.S. government's official web portal to all federal, state and local government web resources and services.